Vertical_Velocity
0 -0 1 2 -1 0 -0 -2 0 1 -1 1 -0 -1 1 -1 -1 1 1 -2 -1 -2
3 2 2 2 -0 -0 -0 -0 -1 -1 -2 -1 -0 0 1 1 1 0 1 0 -1 -1
1 -0 -0 1 -0 -1 -2 -1 -0 -1 -1 1 0 2 1 0 -0 1 1 -0 -1 -0
1 -1 -0 2 1 -0 -2 -2 -1 1 2 1 3 2 0 0 -0 1 1 -0 -1 0
-0 -2 1 1 -1 0 -1 -1 -0 1 3 2 2 1 0 1 -1 1 -0 -1 -1 -0
0 3 1 -2 0 -0 -1 0 3 2 3 2 -1 1 0 0 0 0 -0 -1 -0 -1
3 2 0 -2 -2 -1 -1 0 1 1 -1 1 0 -1 -0 1 0 1 1 -1 -0 -0
4 1 -2 -1 -0 -3 2 -2 -1 0 -0 1 1 -0 -1 -0 1 0 1 -0 -1 -1
-0 1 -1 -1 1 -1 1 -0 0 1 0 1 -1 -0 0 0 -1 -1 0 1 1 -1
0 0 1 -0 -0 1 1 -3 0 -1 1 1 -1 -1 -1 -1 -0 -0 0 1 0 -0
1 1 -2 -1 1 -2 -1 3 -1 0 0 0 -0 -1 -1 -1 -1 -0 0 0 0 2
0 0 1 3 2 -1 1 1 2 -2 -1 3 -1 -1 -1 -1 1 -0 1 -1 -0 2
1 1 3 1 1 1 -0 -0 -1 2 2 2 2 0 0 -0 -2 -1 3 -0 0 -0
1 2 1 -1 -0 -1 0 -3 -1 0 1 3 1 -0 -1 -1 -0 2 -1 4 2 2
Height
5926 5929 5931 5934 5936 5938 5938 5941 5943 5945 5946 5948 5948 5950 5951 5951 5951 5953 5953 5952 5951 5951
5923 5927 5930 5932 5934 5936 5938 5938 5941 5944 5945 5946 5947 5949 5950 5950 5951 5951 5951 5951 5951 5952
5919 5922 5926 5930 5932 5934 5936 5937 5939 5941 5943 5944 5945 5947 5948 5948 5949 5950 5950 5950 5951 5951
5916 5918 5922 5926 5929 5931 5933 5935 5937 5938 5940 5942 5944 5945 5946 5947 5947 5948 5949 5949 5949 5950
5911 5914 5918 5921 5925 5928 5930 5932 5934 5936 5938 5939 5940 5943 5945 5945 5945 5946 5947 5948 5948 5949
5908 5911 5915 5917 5920 5924 5927 5929 5931 5933 5935 5936 5937 5939 5941 5942 5943 5944 5945 5946 5946 5947
5904 5907 5909 5912 5916 5920 5923 5925 5928 5929 5931 5933 5935 5936 5937 5939 5939 5940 5941 5942 5943 5944
5899 5902 5904 5908 5913 5917 5920 5922 5924 5925 5928 5930 5932 5933 5934 5935 5936 5937 5938 5940 5941 5942
5893 5898 5901 5904 5908 5913 5916 5919 5921 5922 5924 5927 5929 5930 5931 5932 5933 5934 5935 5938 5939 5941
5889 5894 5897 5900 5905 5909 5912 5915 5917 5919 5922 5924 5925 5927 5928 5929 5930 5932 5934 5936 5938 5939
5885 5888 5892 5897 5902 5905 5908 5911 5913 5916 5918 5920 5923 5924 5926 5927 5929 5931 5932 5934 5935 5936
5882 5885 5888 5893 5897 5900 5904 5907 5909 5912 5915 5917 5919 5921 5922 5924 5927 5929 5930 5931 5932 5933
5876 5880 5885 5888 5892 5895 5900 5903 5905 5909 5911 5914 5916 5918 5919 5921 5923 5926 5927 5928 5929 5929
5871 5876 5880 5883 5887 5891 5895 5898 5902 5905 5907 5910 5912 5913 5915 5916 5919 5921 5923 5924 5925 5925